Theta_e
324 315 313 326 325 320 313 309 294 298 299 291 290 291 292 299 300 300 300 303 302 306 308 309 308 309 307 307 311 315 316 308 310 297 298 317 331 338 340 340 341 341 341 341 342 342 342 344 344 343 343 342 342 342 342 342 346 346 346 347 347 345 344 343 342 341 340 339 339 339 339 345 346 344 343 344 344 344 344 342 340 340 341 342 342 342 342 341 341 341 341 340 340 340 341 343 343
319 312 314 317 316 310 303 308 297 291 291 287 290 292 294 297 298 298 298 301 302 307 306 306 306 310 316 317 317 316 314 319 319 319 323 329 336 337 340 340 341 340 340 341 342 341 340 342 345 344 343 342 342 342 342 342 343 346 346 347 346 346 344 343 341 341 339 337 337 338 340 342 344 344 345 345 345 345 344 342 342 341 342 341 342 343 343 342 342 343 342 341 341 340 343 343 343
320 316 318 318 314 311 308 304 295 290 289 286 289 291 296 294 293 297 301 305 307 307 306 305 308 309 307 309 311 310 306 322 324 325 324 332 331 334 339 341 341 341 341 341 341 341 340 341 344 344 344 343 342 342 342 342 343 345 346 346 346 346 344 343 342 339 338 339 339 338 340 343 345 344 344 345 345 345 344 343 342 342 342 343 344 343 343 342 342 343 342 342 341 340 343 343 343
323 318 318 314 307 308 298 297 293 292 290 287 288 295 294 297 299 302 304 307 307 307 308 306 305 310 310 312 314 320 316 318 324 324 324 325 328 336 339 340 341 341 341 341 341 340 339 342 344 345 344 344 343 343 344 343 344 346 345 345 346 345 344 343 341 340 340 339 339 339 340 343 344 344 344 344 345 345 344 343 342 342 343 343 343 343 343 344 344 343 343 342 341 342 343 342 342
316 318 320 313 308 303 302 297 294 291 290 287 288 294 299 301 302 305 305 306 307 307 307 307 303 309 312 312 314 308 312 321 324 327 325 327 334 337 339 340 341 340 340 341 341 340 339 342 344 345 344 343 344 344 343 343 343 345 345 345 345 345 344 343 342 340 338 337 336 338 339 339 344 344 344 344 344 344 344 343 343 343 342 343 343 342 343 343 343 343 342 341 341 342 342 342 342
319 314 319 312 305 307 301 295 293 292 292 292 290 297 300 303 304 306 306 306 306 305 307 307 304 305 313 315 318 314 322 316 323 325 327 328 334 338 340 339 339 339 340 341 341 340 339 341 342 345 344 344 344 344 343 343 343 343 343 343 345 344 343 342 342 341 340 339 337 337 338 340 341 344 344 343 343 343 343 343 343 342 341 341 343 343 344 343 343 343 342 341 341 342 342 341 341
312 312 311 307 305 305 295 292 292 292 293 294 295 300 302 303 305 305 304 305 306 306 307 308 312 311 310 316 316 322 329 325 325 326 329 331 334 336 338 338 338 339 341 341 341 340 339 341 344 346 345 344 343 343 343 342 342 342 344 345 344 344 343 342 341 341 339 338 337 336 338 339 339 342 342 342 343 343 343 342 342 341 341 341 341 341 342 343 342 342 341 341 341 341 341 341 341
317 309 307 297 297 297 293 291 292 292 293 296 299 302 303 305 304 305 303 302 302 304 307 306 305 305 305 313 312 321 330 331 330 331 331 333 334 334 337 337 337 339 340 341 341 340 343 341 344 345 345 344 344 343 343 343 342 342 342 343 342 342 341 341 340 339 338 338 337 337 338 338 339 340 340 341 341 341 341 341 341 341 341 341 341 341 341 341 342 341 341 340 339 340 340 341 340
311 310 309 301 296 296 291 292 292 294 292 296 301 305 310 305 304 303 301 302 302 304 306 306 304 302 306 314 313 322 327 331 332 332 332 333 334 334 336 335 338 339 340 341 340 340 340 340 343 344 344 345 344 344 343 343 342 342 342 342 342 341 340 338 338 338 339 338 337 336 338 338 338 338 340 341 340 340 340 340 340 340 340 340 340 340 341 341 341 341 341 340 339 339 339 340 339
308 307 299 297 295 293 291 290 293 293 293 297 302 303 303 302 302 303 301 301 302 304 306 305 304 303 311 312 314 319 323 331 332 331 333 334 334 334 334 336 340 340 340 340 340 340 340 343 341 343 343 344 344 344 343 343 343 343 342 341 341 341 340 338 337 337 337 337 337 337 337 337 337 337 338 339 339 339 339 340 339 339 338 338 339 340 340 340 340 340 340 339 338 338 339 339 338
303 306 305 298 293 290 290 289 292 294 295 297 299 303 303 302 303 300 302 301 301 303 304 305 307 309 314 315 314 320 329 330 330 329 332 333 334 332 334 340 341 341 339 339 340 340 340 340 342 340 341 342 343 344 343 343 342 342 342 341 341 340 339 338 337 337 337 337 336 337 338 337 338 341 341 338 340 340 340 340 340 340 340 340 339 339 339 339 339 340 339 338 338 337 338 338 338
302 299 302 293 291 290 289 292 293 292 294 296 297 301 300 302 301 299 299 300 301 301 303 304 301 310 313 312 313 322 328 329 329 331 333 333 333 333 336 340 341 340 340 339 340 340 339 339 339 341 338 340 340 342 342 343 342 341 341 341 340 340 339 338 337 336 337 338 341 339 338 338 339 341 341 340 339 340 339 339 339 339 339 339 339 338 338 338 338 338 338 338 337 337 337 337 337
302 299 295 293 289 291 291 293 291 292 293 294 296 299 300 301 300 300 299 301 302 302 304 304 304 304 305 311 315 322 326 328 330 331 332 332 332 333 335 339 340 340 340 340 340 339 339 338 339 339 336 335 336 338 339 340 341 342 341 340 340 339 339 338 336 336 338 339 340 341 340 338 338 339 341 340 339 339 338 338 337 337 337 337 337 337 337 338 337 337 337 336 336 337 337 336 336
304 303 297 292 292 292 293 293 292 290 290 293 296 300 301 301 301 301 302 302 301 302 304 307 305 315 312 314 314 318 323 329 330 331 332 332 330 333 334 338 339 339 339 340 339 340 339 338 339 337 336 337 336 335 334 337 339 341 340 340 340 340 339 338 339 339 337 337 337 337 338 339 338 338 339 339 338 337 337 338 337 336 336 336 336 337 337 337 337 337 336 336 336 336 336 336 335
305 305 299 295 292 293 291 292 293 290 290 294 298 299 301 302 300 299 303 300 301 305 306 307 307 305 306 311 309 317 323 329 330 331 330 330 330 332 334 336 337 338 339 339 339 339 339 339 339 337 336 336 336 335 335 335 335 336 337 337 338 339 338 336 336 335 333 333 333 333 333 332 332 332 333 334 335 334 333 331 334 335 336 336 336 336 336 336 336 336 336 335 335 335 335 334 335
306 302 299 295 291 291 292 294 293 291 292 295 298 298 298 300 301 299 302 302 302 306 304 302 307 306 310 310 313 321 326 329 331 330 329 327 328 331 333 334 335 336 338 338 339 339 339 339 338 338 337 337 336 335 335 334 332 332 335 336 336 335 334 333 332 330 328 327 327 328 328 327 327 326 327 327 330 331 330 328 331 335 335 335 335 335 335 335 335 335 335 335 334 333 332 331 332
305 300 295 291 290 292 292 294 292 289 292 296 299 299 299 298 301 300 301 304 303 303 309 311 307 321 319 318 319 325 329 330 329 328 327 325 327 327 329 331 332 333 336 337 337 338 338 338 338 338 337 337 337 337 335 334 332 330 331 330 330 330 331 330 328 324 322 322 323 324 325 326 325 325 325 324 324 325 323 325 329 333 335 335 334 334 334 334 335 334 334 333 332 330 328 327 326
302 296 292 290 290 293 294 295 294 295 296 296 297 298 299 296 299 301 301 300 302 304 308 311 320 320 323 324 327 329 329 328 328 326 324 322 325 325 326 327 330 330 332 334 337 337 337 338 338 337 337 337 337 338 337 335 332 332 330 330 329 327 326 325 325 325 327 323 323 325 326 325 325 325 325 327 323 324 324 323 325 330 333 333 333 333 334 333 333 332 332 333 331 330 325 318 319
298 294 291 290 291 294 297 296 296 298 296 298 299 297 300 300 298 299 297 297 299 300 302 310 316 320 324 325 326 327 328 327 327 326 323 322 324 325 325 325 328 329 329 330 334 336 337 337 338 336 337 337 337 338 338 335 333 332 331 329 328 327 327 327 327 326 324 324 323 324 324 325 324 324 324 325 323 321 323 323 325 328 330 330 330 331 331 331 331 331 331 331 330 327 316 317 317
299 294 290 291 295 296 296 295 298 297 298 297 298 298 298 299 299 300 297 296 296 298 300 304 315 318 320 323 325 326 327 326 326 325 323 322 324 325 324 324 327 329 330 330 331 335 337 337 337 337 336 338 338 337 337 335 334 333 332 330 328 327 327 328 327 327 326 325 325 324 322 322 324 323 325 325 324 322 321 321 322 323 324 325 324 325 327 329 329 328 328 328 323 318 316 317 317
298 296 293 295 296 296 296 296 295 297 300 299 299 297 297 298 298 298 295 295 294 296 303 303 310 319 321 322 324 325 325 325 324 324 323 322 323 325 325 326 327 328 330 329 330 333 335 337 337 337 337 338 338 336 335 335 334 333 332 331 329 328 328 328 327 327 327 325 325 325 323 324 324 323 322 322 321 321 319 320 321 321 320 318 320 315 315 316 316 315 316 317 314 317 317 319 319
301 295 297 298 296 295 297 296 296 296 298 299 297 297 296 298 298 297 296 294 293 296 299 303 312 322 322 321 323 324 324 324 324 323 323 323 323 324 325 324 326 328 329 329 329 331 333 336 336 336 337 338 338 336 335 334 334 333 332 331 330 330 329 328 328 327 327 326 324 324 324 324 323 323 322 321 321 321 320 319 319 319 317 317 318 317 314 313 314 315 315 316 316 316 316 318 320
294 295 298 297 296 297 297 296 295 295 298 299 297 298 298 297 296 297 297 295 295 297 298 301 312 323 324 324 323 323 323 323 323 323 323 323 323 324 325 326 326 326 327 329 329 330 333 334 334 336 336 337 337 337 336 334 334 334 333 331 330 329 329 328 328 327 328 326 325 323 323 323 323 322 322 320 321 321 321 320 320 319 320 318 319 316 314 314 314 314 315 316 315 315 314 314 315
298 295 297 298 298 297 297 297 294 294 300 299 299 299 298 295 294 297 296 296 298 301 302 300 311 323 324 322 322 322 323 323 323 324 325 325 325 325 325 326 327 325 326 328 328 330 330 333 334 335 335 336 336 337 336 334 334 334 333 330 331 329 328 328 327 327 328 327 325 324 321 321 322 321 322 320 320 321 321 321 321 319 319 318 319 318 316 314 314 314 315 314 315 314 315 315 314
298 297 297 297 296 297 296 294 295 295 297 297 298 298 297 295 295 296 296 299 301 305 307 303 311 320 322 321 320 321 322 323 323 324 324 325 325 325 325 326 327 325 326 327 328 329 330 332 334 334 335 335 335 336 335 335 334 334 333 333 332 328 329 328 328 327 327 326 324 325 321 319 320 322 322 321 320 321 321 320 319 320 320 320 318 316 317 316 314 314 316 315 314 313 315 315 314
297 297 296 296 297 298 296 297 297 296 301 296 297 295 296 296 298 296 297 298 301 304 309 309 312 317 319 319 320 320 320 322 323 322 324 324 325 325 325 326 327 326 326 327 328 328 330 332 334 334 334 335 335 334 334 334 333 333 333 333 333 329 329 329 328 327 327 327 325 324 322 322 321 321 322 321 321 319 319 319 319 320 320 319 317 317 317 316 315 314 313 314 314 314 314 314 314
298 296 295 295 296 297 298 297 297 297 299 297 296 294 296 296 297 293 296 298 301 304 308 310 311 312 316 317 318 320 320 321 322 324 323 323 324 325 325 325 326 327 327 326 328 327 329 330 333 334 335 333 334 334 332 333 332 332 333 333 331 330 329 329 328 328 328 327 326 325 323 323 323 321 321 321 321 319 316 317 317 317 318 316 318 317 317 317 316 316 315 314 313 313 314 314 314
297 296 295 295 296 296 296 295 296 297 297 296 295 294 295 295 297 292 295 300 302 304 306 309 311 311 313 315 315 318 320 321 323 323 322 322 323 325 325 325 325 327 326 326 328 328 328 330 333 334 335 334 334 334 332 333 332 332 332 332 330 330 329 328 328 328 326 328 328 327 326 324 323 322 321 320 320 319 317 317 316 315 316 315 317 316 315 317 317 316 314 315 315 314 315 311 312
296 297 295 294 294 294 295 294 295 296 295 296 296 293 293 294 294 297 296 302 300 303 305 306 307 309 310 313 314 316 319 320 321 322 323 325 324 325 325 326 325 325 327 328 328 327 327 330 331 333 335 333 334 334 333 333 333 332 333 332 330 330 329 329 329 328 327 328 328 328 327 326 325 323 321 321 319 318 318 318 316 316 317 316 315 315 314 314 313 313 313 314 312 312 313 312 312
297 297 294 293 293 290 294 296 295 295 295 295 296 286 288 293 296 296 297 300 298 299 301 303 304 304 307 310 312 314 315 317 319 321 323 324 324 324 325 326 326 325 325 327 327 327 327 329 331 333 333 333 334 334 333 332 332 332 333 333 331 330 330 329 328 329 329 328 327 327 326 325 324 323 324 322 319 318 318 318 317 316 315 314 315 314 314 313 314 312 311 312 313 312 311 309 310
292 294 294 287 287 285 293 294 293 295 297 295 295 288 287 291 295 296 296 298 298 297 298 299 301 302 304 307 309 311 312 315 318 320 321 323 324 324 325 326 326 326 324 325 327 328 327 328 330 332 330 333 332 333 332 332 332 332 332 333 332 331 330 330 329 329 329 329 328 326 326 326 325 325 323 322 320 317 317 316 315 316 316 313 314 314 314 313 314 313 309 312 310 310 309 308 309
293 291 286 289 288 287 293 295 294 294 295 296 294 289 289 292 293 294 296 296 297 297 296 297 298 299 301 304 306 308 311 313 317 319 320 322 323 324 325 325 327 326 325 326 327 327 327 327 328 330 329 332 332 332 332 332 332 332 332 329 333 332 331 330 329 329 328 328 328 327 326 325 324 325 324 322 320 318 317 316 315 315 314 314 314 312 313 314 312 312 311 313 311 310 309 312 309
292 289 285 286 286 288 291 294 293 296 293 295 293 288 290 291 293 296 295 297 296 296 295 295 297 298 298 302 306 308 309 310 313 317 319 321 323 324 326 326 327 327 326 325 326 326 327 327 326 327 328 331 332 331 329 330 331 331 332 331 333 332 331 331 330 329 328 327 327 327 327 326 326 327 326 323 322 320 317 317 314 315 314 314 312 312 314 313 313 313 310 311 313 310 309 310 310
286 288 285 287 287 286 285 290 294 295 293 291 292 290 289 291 293 295 296 296 295 295 294 294 297 298 298 300 305 307 309 310 312 315 318 320 322 324 326 324 326 327 326 325 326 327 327 327 327 327 327 330 331 331 329 329 329 330 331 332 329 332 331 331 331 330 329 328 327 327 326 326 326 327 325 323 322 321 320 318 316 315 314 314 313 312 313 313 312 313 312 310 312 311 309 311 311
283 286 285 286 287 288 288 288 291 294 294 292 290 290 291 292 293 294 295 296 295 295 295 295 295 297 298 298 302 305 306 308 311 315 318 320 321 322 324 324 324 325 326 325 326 327 327 327 326 325 326 326 329 330 328 328 327 326 329 331 330 330 331 330 331 330 330 329 328 327 327 327 326 327 325 323 322 320 319 319 318 317 315 313 313 312 311 311 311 311 312 312 311 313 312 311 312
289 289 287 285 285 285 287 290 292 295 291 290 289 290 291 293 292 294 294 294 293 295 294 293 293 296 297 298 300 302 304 306 311 313 316 319 320 320 321 322 323 325 326 325 325 326 326 326 326 325 325 327 327 328 328 327 326 324 323 324 328 328 330 328 329 330 329 329 328 328 327 328 327 327 325 324 324 321 320 321 320 318 316 313 312 311 310 311 312 312 312 312 312 311 309 310 308
291 293 290 289 287 288 290 292 293 293 291 290 290 291 291 292 291 293 294 294 293 293 293 294 294 295 296 297 299 301 302 304 305 311 313 316 317 319 320 321 321 323 324 324 325 326 326 326 325 325 325 326 326 327 327 327 326 324 321 322 326 327 328 328 328 329 329 329 328 328 327 328 328 326 324 323 323 320 322 321 320 317 315 314 313 313 313 313 313 313 312 311 311 311 310 306 306
291 290 290 289 289 287 291 292 293 293 291 289 289 289 290 291 292 293 293 292 294 294 294 294 295 295 296 297 298 299 301 301 301 303 311 311 314 316 318 319 317 320 322 323 324 325 326 326 326 326 325 326 327 327 327 327 327 327 326 324 321 323 325 326 327 327 328 327 327 327 326 325 325 324 323 323 322 321 321 319 318 316 315 315 314 314 313 311 312 312 312 311 310 310 309 307 306
291 290 288 287 287 289 292 292 294 293 292 287 288 289 290 292 292 292 292 294 295 295 296 296 296 295 295 296 296 298 298 299 300 302 306 310 312 315 317 318 319 321 322 322 324 324 325 325 326 326 326 326 327 327 326 327 326 325 325 319 323 317 320 327 327 326 326 328 327 327 327 327 326 326 325 324 323 321 322 320 318 316 315 314 313 312 313 313 313 312 312 311 309 307 308 306 306
289 290 287 286 289 288 287 290 292 293 288 287 287 287 289 292 291 292 293 294 295 295 296 296 296 296 297 297 298 298 298 299 300 300 302 306 310 314 316 317 318 319 319 321 322 323 324 324 325 325 325 326 326 326 324 326 325 323 322 321 322 322 318 320 324 322 325 326 327 326 326 326 326 326 326 326 325 324 323 321 318 316 314 313 313 312 312 312 311 311 310 310 310 308 306 307 305
291 293 290 288 289 289 287 289 291 291 291 290 287 285 285 287 289 291 294 295 295 295 295 295 296 297 298 299 297 298 299 299 301 301 301 303 307 311 314 316 317 318 319 320 321 323 324 323 325 325 325 326 326 324 323 323 322 320 319 316 316 316 316 318 318 317 321 324 326 326 325 323 323 322 323 324 322 323 321 320 318 318 317 314 314 314 313 313 312 311 310 309 309 309 308 306 304
288 291 291 291 292 290 289 290 289 287 287 290 289 279 278 283 287 291 294 293 293 293 294 295 296 296 296 296 298 298 299 299 301 302 303 303 307 310 312 313 314 316 318 320 321 323 323 323 323 324 325 325 325 323 323 323 322 322 319 318 317 317 318 317 319 320 318 320 322 323 324 324 322 321 320 320 320 318 320 320 320 320 318 316 315 315 315 313 311 310 310 310 309 309 310 306 304
287 287 293 293 292 290 290 289 289 282 280 289 290 282 275 282 285 287 289 289 292 292 293 295 296 296 296 297 298 298 299 299 298 300 302 302 304 306 309 310 313 314 316 318 320 321 322 322 322 323 324 324 324 322 322 322 322 322 321 321 321 320 320 319 315 314 319 315 317 322 324 323 324 324 321 321 320 319 321 321 321 321 320 318 316 314 313 312 312 311 310 309 310 309 308 307 307
285 290 295 294 292 290 289 289 287 284 287 290 289 282 279 281 286 288 290 289 290 290 291 292 294 295 295 297 297 297 299 299 299 300 302 302 303 305 306 308 310 313 314 315 316 318 319 320 320 321 322 321 323 322 321 323 323 322 320 319 318 318 318 317 316 316 317 317 317 318 320 322 322 322 321 320 320 319 319 320 319 318 319 317 314 314 314 312 311 311 310 311 310 309 308 308 307
288 294 295 293 292 290 290 289 286 286 285 281 282 287 282 277 284 288 290 290 290 291 291 292 294 295 295 296 298 298 298 300 301 301 301 302 302 303 304 305 307 308 308 310 313 316 317 318 319 319 319 320 320 321 320 320 322 322 321 319 315 315 314 313 312 314 315 315 316 314 316 316 319 322 322 322 321 320 318 320 320 320 319 317 312 314 314 314 313 312 310 309 309 309 308 307 305
293 295 297 296 295 293 292 286 286 286 281 278 282 284 278 278 282 287 289 288 288 289 292 294 295 296 296 296 297 298 298 296 297 300 300 300 301 302 302 302 301 303 303 304 306 309 312 314 317 317 318 319 320 320 320 318 318 318 318 317 316 313 312 311 312 313 313 312 315 314 314 313 315 318 319 320 320 321 320 320 319 320 319 319 313 315 313 312 311 310 310 309 309 308 307 307 307
296 295 293 291 289 287 284 284 282 283 278 278 280 284 282 278 282 286 287 288 288 290 290 291 293 293 295 296 297 297 296 296 296 297 297 297 296 298 298 301 301 300 301 303 306 309 311 314 315 317 317 317 317 319 319 317 317 318 319 317 317 314 312 312 311 310 311 310 313 312 314 314 314 315 316 318 319 319 319 319 318 317 317 313 313 313 313 312 311 311 310 309 307 307 307 306 306
296 290 287 288 285 283 283 283 282 277 273 276 281 283 283 277 277 283 287 288 288 292 291 294 293 294 295 295 295 296 296 297 297 295 297 298 298 298 297 298 299 301 302 304 305 308 310 313 314 315 314 315 315 317 317 316 316 316 317 316 316 315 314 314 313 312 312 312 312 313 315 317 317 317 316 315 314 316 317 314 315 317 314 314 314 313 312 312 311 310 308 307 307 306 306 305 305
292 289 288 284 280 280 277 280 277 274 273 280 279 282 283 282 283 286 287 289 289 288 292 292 291 293 295 297 297 297 297 297 298 296 294 297 297 297 297 298 299 301 303 304 306 307 309 311 313 314 313 313 314 315 316 314 314 314 315 315 315 314 314 314 313 312 312 313 312 312 314 315 313 313 312 311 308 309 311 311 311 312 311 311 309 308 306 307 308 307 306 304 303 303 304 305 304
289 287 283 282 276 273 270 270 273 273 278 280 280 281 280 281 284 291 292 296 295 292 289 290 293 295 297 298 296 297 296 296 296 296 294 296 297 298 298 300 302 302 302 304 305 306 308 310 311 313 312 312 312 313 314 313 313 314 314 314 314 313 313 313 313 313 312 312 312 312 312 312 311 311 308 309 310 310 309 311 310 310 309 308 306 307 305 304 303 303 303 302 304 306 306 304 305
290 289 288 284 283 275 271 273 273 274 275 278 281 279 275 278 283 285 292 295 295 292 291 291 292 293 296 297 296 295 295 295 295 296 298 298 299 299 299 300 302 302 303 304 305 306 307 309 310 310 310 310 311 312 313 313 312 312 312 313 313 312 313 313 312 312 311 311 309 310 308 308 309 309 309 311 308 308 310 308 306 307 305 306 306 305 304 303 302 301 302 303 303 303 303 304 304
289 289 289 286 285 284 279 279 277 274 275 277 278 278 278 282 285 290 289 290 290 291 291 293 292 294 294 295 296 296 297 297 297 297 298 299 299 298 298 300 302 302 303 304 305 306 307 309 309 310 311 310 310 310 312 313 313 311 310 312 312 311 310 310 308 308 309 310 310 310 309 307 308 307 307 306 304 306 305 304 302 302 302 304 304 304 303 303 301 301 300 302 303 303 304 303 303
288 288 284 285 289 286 280 280 281 278 275 273 277 280 280 284 289 293 292 289 290 290 291 290 290 289 290 292 293 293 294 294 295 298 299 300 298 299 300 300 301 301 303 305 306 307 308 308 308 308 309 309 309 310 312 312 312 310 309 311 311 310 311 311 312 310 309 309 310 309 308 307 304 305 305 305 304 303 303 303 302 300 301 300 299 301 302 302 301 301 300 299 301 301 302 302 301
288 283 288 290 291 289 285 279 278 275 272 273 277 278 278 281 279 287 288 289 289 289 292 292 290 289 290 292 292 293 293 294 295 298 299 300 301 300 300 301 302 302 303 304 305 306 307 308 308 308 307 308 308 309 310 311 312 310 308 310 310 311 311 310 310 309 307 306 306 306 305 304 304 304 305 303 303 301 300 299 301 299 298 299 299 298 297 297 299 298 301 301 300 301 300 299 299
289 287 294 289 282 282 283 282 274 274 272 270 276 277 277 278 281 283 286 288 290 290 291 291 292 290 291 292 292 291 292 294 296 298 299 299 300 300 301 302 302 303 303 304 305 306 306 305 307 309 309 309 309 309 310 312 313 314 311 309 309 309 308 308 307 307 306 306 305 304 305 303 302 302 302 302 301 299 298 295 297 295 297 297 297 296 296 295 294 296 297 298 297 297 296 297 297
291 291 288 289 287 284 281 282 280 279 273 274 272 277 277 281 281 284 289 288 289 290 289 291 293 292 292 292 293 293 294 297 298 299 299 299 299 299 301 301 302 303 303 304 305 306 306 307 306 307 307 307 307 307 308 311 313 313 311 307 306 307 307 307 306 306 305 305 304 303 302 302 302 301 301 300 298 296 296 296 294 296 295 295 295 295 294 293 293 294 294 297 298 297 296 296 297
284 285 283 286 285 286 285 285 282 278 273 272 271 273 274 280 286 288 291 292 292 291 290 292 293 293 292 292 294 295 297 298 298 298 297 297 297 296 297 298 300 299 301 303 305 306 306 306 307 307 308 307 307 308 309 311 312 311 308 307 306 306 304 304 304 305 304 303 302 302 302 302 299 299 297 295 295 295 295 294 294 295 296 294 295 295 295 295 296 296 297 297 296 297 298 297 298
288 288 286 288 283 281 281 280 283 280 279 274 272 275 276 284 288 292 292 292 290 289 290 292 292 292 291 292 293 295 297 298 299 298 297 297 296 296 295 295 295 297 298 301 303 304 304 305 307 307 307 307 307 307 310 309 308 310 308 306 305 302 303 302 302 301 302 301 300 299 299 297 297 295 296 295 295 295 294 294 294 295 296 297 299 301 296 296 295 296 296 299 297 297 295 295 294
Wind_Speed
6 6 5 3 0 0 2 1 1 2 2 2 2 1 1 1 4 5 5 3 5 1 1 2 5 7 4 6 11 7 7 1 1 3 3 2 4 11 13 13 12 11 10 7 6 6 7 9 12 12 12 11 12 11 11 13 14 14 13 13 12 14 16 16 15 14 15 16 15 15 15 17 16 16 16 16 16 17 17 17 16 17 17 17 18 18 18 19 18 18 19 18 17 17 17 17 16
4 5 5 4 2 3 1 1 1 2 3 3 1 2 4 2 5 8 6 4 1 2 1 5 7 8 14 13 11 5 8 6 1 4 3 5 10 10 12 13 13 13 9 7 6 6 6 7 11 13 13 12 12 12 11 11 13 14 13 13 12 13 15 16 15 14 14 13 13 14 15 15 15 15 16 16 17 17 16 16 16 16 17 17 18 18 18 18 18 18 18 18 18 17 17 16 16
4 6 6 5 2 1 1 2 1 1 2 1 2 3 1 5 5 2 5 6 6 4 5 5 6 4 2 3 5 4 0 3 8 5 5 6 13 8 12 11 12 12 11 7 6 6 6 7 11 12 13 13 13 12 12 11 12 13 13 13 13 12 14 16 15 14 13 15 15 14 15 16 16 15 15 16 17 16 16 16 15 15 16 17 17 18 17 17 18 18 18 18 17 17 16 16 16
3 1 1 2 2 2 2 2 2 1 0 4 1 1 1 8 7 7 4 6 5 5 2 3 4 1 6 12 7 8 5 2 1 6 6 5 5 11 12 12 12 11 9 7 7 6 5 8 11 12 13 13 12 12 12 11 13 14 14 14 14 12 14 16 15 13 15 15 14 13 15 16 16 15 15 16 16 17 16 16 16 15 16 17 17 17 17 17 17 17 17 18 17 16 16 16 16
2 3 1 1 2 2 1 1 1 3 2 2 4 0 4 5 9 9 4 4 5 5 2 2 3 2 4 6 1 2 2 4 3 1 4 3 8 10 12 12 11 11 9 8 7 6 6 11 11 11 13 13 13 12 12 11 12 14 13 13 14 14 14 15 14 14 13 13 13 14 14 15 16 15 16 16 16 16 16 15 15 16 16 17 17 17 17 17 17 17 18 17 16 15 15 16 17
3 3 1 2 0 2 2 2 3 1 7 2 3 5 4 6 10 9 6 4 3 4 1 2 3 2 4 2 2 3 5 6 5 2 4 8 10 13 13 11 11 10 10 9 8 6 6 11 11 12 13 13 13 12 12 12 12 13 14 14 14 13 14 14 14 14 15 13 13 14 13 13 15 16 16 16 16 16 16 15 16 16 16 16 16 16 17 17 17 17 16 16 15 14 15 15 17
2 4 2 3 2 2 3 2 3 2 7 3 8 6 8 4 9 11 6 5 4 3 2 2 8 5 6 0 3 1 4 5 5 4 3 9 10 11 11 11 10 11 11 9 8 6 7 11 12 12 12 13 13 12 12 12 11 12 14 14 14 14 14 14 14 14 14 13 13 13 13 13 13 14 15 15 16 16 15 16 15 15 15 15 15 16 16 16 17 16 17 15 14 13 14 15 16
0 2 1 2 1 2 2 2 3 2 2 3 4 12 8 8 7 8 7 5 2 3 0 3 1 5 1 2 4 3 7 2 6 7 9 9 10 10 10 10 11 11 10 9 8 6 9 11 12 12 12 13 13 13 13 12 12 11 12 13 13 12 12 12 12 12 13 13 13 14 14 13 13 13 14 14 14 15 15 15 15 15 15 15 14 15 15 16 16 16 15 15 13 13 14 15 15
1 1 1 3 1 1 2 3 4 2 2 1 3 5 9 11 7 10 5 2 3 1 2 2 5 7 2 5 3 1 3 5 9 11 10 10 10 8 8 10 12 10 10 9 8 6 6 10 11 12 11 12 13 13 13 13 12 12 11 11 12 12 12 11 11 11 12 13 12 12 13 12 12 13 14 13 13 13 14 14 14 14 14 14 14 15 15 15 15 15 15 14 13 12 13 14 13
1 2 1 1 2 3 2 6 1 2 1 0 8 8 6 4 6 7 8 6 4 4 4 3 3 5 4 7 2 1 2 5 11 8 8 10 9 6 8 11 12 13 10 9 8 7 5 10 11 11 11 11 12 13 13 12 12 12 11 11 12 12 12 12 11 10 11 12 12 13 13 12 12 12 12 13 12 12 12 13 13 13 13 13 13 14 14 14 14 14 14 13 12 11 12 12 12
0 1 1 0 0 1 3 6 1 1 2 2 3 5 8 6 8 6 6 6 3 5 1 5 6 9 5 2 0 3 4 6 12 11 9 10 7 5 9 12 12 12 11 11 9 7 6 6 11 11 10 10 11 11 11 10 12 12 11 11 11 11 11 11 10 10 11 12 10 11 13 12 12 12 11 12 14 13 13 13 13 14 13 13 13 13 13 14 14 14 13 12 11 10 10 11 11
0 1 1 1 3 4 5 2 2 2 1 1 2 4 3 8 6 5 5 8 3 5 4 5 4 5 6 3 1 2 7 6 7 9 10 7 5 5 11 10 11 11 13 11 9 7 6 6 6 9 10 10 10 10 10 10 11 11 11 11 11 11 11 11 10 9 9 12 12 11 12 12 12 13 14 14 12 11 13 13 13 13 13 13 13 13 13 13 13 13 12 12 11 10 10 10 10
2 1 2 1 3 3 3 1 5 3 1 3 5 2 2 7 6 9 7 7 6 6 3 3 4 5 2 1 2 2 8 6 6 6 8 7 4 6 10 10 11 12 11 10 10 8 7 6 6 6 7 10 10 9 9 10 10 10 10 11 10 11 11 11 10 9 11 12 12 10 11 11 11 12 13 12 11 11 12 11 11 11 12 12 12 12 12 12 12 12 11 11 10 9 9 9 8
2 1 5 3 0 2 1 1 1 4 3 3 2 1 1 3 3 9 9 8 6 7 2 6 3 6 4 5 1 5 6 7 8 6 6 6 4 7 10 10 11 11 11 11 10 9 7 5 6 5 6 6 5 7 9 10 9 10 9 9 9 9 10 10 8 10 11 10 9 9 10 10 11 11 11 11 10 10 11 10 11 11 11 11 11 11 11 11 11 11 11 10 10 8 8 8 8
1 1 2 2 2 1 2 3 7 4 5 3 3 4 1 2 3 3 12 8 3 1 2 4 3 3 6 8 4 9 8 12 10 8 6 4 5 8 10 10 11 11 10 10 9 9 8 6 6 6 5 5 5 5 4 7 10 9 10 9 10 10 9 10 11 10 10 10 10 10 10 10 11 11 10 10 10 10 9 8 8 9 11 10 11 10 11 10 11 11 10 9 8 8 7 7 7
2 2 2 1 5 3 6 4 3 3 3 3 4 4 4 2 2 3 0 5 2 1 1 1 3 1 5 9 7 13 10 12 11 8 6 4 5 7 9 9 10 10 9 10 9 8 9 8 7 6 6 6 5 4 5 5 8 10 9 9 10 10 10 10 10 10 10 10 10 10 9 8 8 8 10 7 9 9 8 7 8 8 10 10 10 10 9 9 10 10 9 9 8 7 7 7 7
2 4 0 1 4 3 4 1 6 4 1 3 2 5 6 2 1 1 0 4 9 1 5 3 1 3 2 4 10 13 12 11 11 7 5 4 7 6 7 7 7 7 7 9 9 8 8 9 9 7 7 7 6 6 5 5 6 9 8 10 10 11 10 10 10 10 9 9 9 9 8 6 5 5 6 5 7 6 8 9 8 9 8 8 8 9 9 9 9 9 7 6 7 6 5 5 5
2 2 3 2 5 1 3 4 4 3 8 6 5 6 7 5 1 1 3 5 6 4 8 2 7 6 3 6 14 13 13 14 11 9 7 6 6 7 7 7 7 7 7 8 8 9 9 8 10 9 7 8 7 6 5 5 5 6 5 5 6 7 8 8 7 5 6 4 7 6 5 5 5 4 5 6 5 5 7 9 9 9 9 9 8 8 9 8 7 6 5 5 5 5 4 2 3
3 2 3 8 3 5 1 1 2 7 4 12 8 4 8 8 8 4 5 3 6 5 3 3 8 6 8 10 13 14 13 12 11 9 9 9 10 11 9 7 7 7 6 7 7 10 9 8 9 9 8 9 8 7 6 6 7 5 5 5 5 6 6 6 5 5 4 5 4 4 5 5 4 4 4 6 5 6 7 9 9 9 9 9 8 8 8 7 6 5 4 4 3 3 2 2 1
3 4 5 6 4 3 2 3 3 4 8 7 7 5 5 5 3 2 4 7 6 9 8 2 8 9 9 9 11 12 12 12 11 10 9 8 8 10 9 8 8 8 7 6 7 7 9 9 9 10 8 9 9 7 6 6 6 6 6 5 5 5 5 5 5 4 4 4 5 4 3 3 4 4 7 11 8 5 5 8 9 9 9 8 8 5 5 5 4 3 3 3 3 2 2 2 2
2 2 4 4 3 3 2 3 6 4 12 10 10 4 4 4 4 4 5 7 5 5 9 12 12 14 12 11 12 11 12 12 10 9 7 7 6 6 7 7 8 8 6 5 6 7 9 10 9 9 8 9 9 8 8 7 7 6 6 6 6 5 5 5 5 5 5 4 4 4 3 4 5 5 5 5 5 5 5 4 4 4 4 4 5 3 3 2 2 1 0 1 1 1 1 3 3
1 6 4 3 0 1 2 4 4 3 5 12 6 9 6 3 3 5 11 9 9 9 9 8 15 16 16 14 12 11 12 13 12 11 10 10 10 10 6 4 4 5 5 6 7 6 8 10 9 8 8 9 9 9 8 8 8 7 6 7 6 5 6 5 5 5 5 4 4 4 5 5 6 6 5 5 5 5 5 5 5 4 3 4 3 3 2 2 1 1 1 1 2 1 1 4 4
2 4 4 2 2 2 0 3 5 3 4 8 9 5 6 6 4 5 9 7 4 6 7 10 16 17 17 15 14 12 12 14 13 14 12 11 9 9 9 7 8 8 7 7 6 5 7 8 9 8 8 9 10 9 7 8 7 7 7 7 7 6 6 6 6 6 6 4 4 4 7 6 6 6 6 5 5 5 5 5 5 4 4 5 4 4 3 3 2 2 2 4 2 2 3 3 2
4 5 2 3 0 4 2 1 5 3 10 8 4 6 7 6 5 3 5 3 4 3 3 10 16 14 13 14 15 17 16 16 15 14 13 13 11 12 10 10 9 5 7 8 7 7 7 8 8 8 9 9 9 9 8 8 7 8 8 8 7 7 7 6 6 6 6 6 5 4 4 6 6 6 6 5 5 5 5 5 5 5 5 5 5 5 4 3 2 2 3 3 2 3 3 0 0
7 6 1 1 2 1 1 2 1 2 2 1 7 7 7 6 4 3 5 4 4 2 3 11 12 14 14 15 14 14 14 12 12 10 8 7 8 7 6 7 9 7 10 9 8 8 8 8 8 8 8 9 9 9 8 7 7 8 8 8 8 7 7 7 7 6 6 6 4 4 4 5 5 6 6 5 6 6 6 5 5 6 5 5 4 5 5 4 3 3 4 4 3 3 0 1 1
2 4 1 2 1 0 1 1 0 1 0 3 6 2 1 2 0 5 6 6 5 2 9 10 14 15 14 14 15 14 13 14 13 11 13 10 9 10 8 9 10 10 10 9 9 8 7 8 9 9 9 9 8 8 8 7 7 8 8 8 7 8 6 7 6 6 6 6 5 4 5 5 6 6 6 6 6 6 6 5 6 6 7 6 5 6 5 5 4 3 3 3 3 1 1 3 1
2 4 2 4 2 2 0 2 1 0 1 1 7 3 1 1 3 4 4 7 4 6 9 10 13 15 14 12 11 11 13 14 15 12 8 7 10 12 9 7 11 11 9 9 9 8 7 8 9 9 8 8 7 7 7 8 7 7 8 7 6 7 7 7 7 6 7 7 6 5 4 4 5 5 5 6 5 5 4 4 5 6 6 6 6 6 4 5 4 4 4 4 3 3 4 3 4
4 5 4 2 1 1 1 1 1 0 1 2 5 2 0 2 0 5 5 7 8 11 9 9 10 11 10 12 12 10 11 12 11 10 14 12 12 12 11 8 10 10 11 11 9 8 8 9 10 9 9 8 8 7 7 7 7 7 7 7 7 7 7 6 6 6 6 7 7 6 4 4 4 4 5 4 6 5 5 5 4 4 5 4 6 5 5 4 5 4 4 4 4 3 5 3 3
3 9 7 2 1 2 1 3 2 1 2 2 2 3 1 1 6 7 5 10 7 11 10 11 10 9 9 9 10 9 11 10 9 11 13 13 10 10 12 8 9 9 8 11 10 9 10 10 10 10 10 9 9 8 7 6 6 6 7 7 7 7 7 6 6 6 5 6 7 7 7 7 5 5 5 5 5 6 6 5 5 5 5 4 4 4 4 4 3 2 3 2 2 1 1 1 1
2 2 4 1 0 2 6 0 1 3 1 1 2 3 7 10 11 5 4 9 6 9 9 9 9 9 8 9 9 9 7 8 11 13 12 11 10 10 12 10 9 9 8 8 10 11 8 7 8 8 10 11 11 8 7 6 6 6 7 6 7 7 7 7 7 6 6 5 6 7 6 6 6 5 5 5 5 6 6 6 6 5 4 4 4 4 5 4 5 3 3 3 3 2 2 2 2
5 3 4 4 4 4 4 4 5 4 1 2 1 5 7 6 8 6 5 8 11 10 8 8 8 8 8 9 9 9 9 10 14 13 12 12 11 9 11 9 9 7 8 8 12 13 9 9 8 8 10 10 10 9 9 8 6 6 7 7 7 7 7 7 6 6 6 6 5 5 6 7 7 6 4 6 6 5 6 6 5 6 5 4 5 4 5 4 4 5 3 3 2 2 2 3 3
2 4 6 1 6 3 2 1 7 8 0 1 3 3 7 7 6 3 8 6 8 9 8 8 7 7 8 8 9 9 10 10 11 11 12 12 11 10 10 10 10 9 10 10 10 10 10 8 9 9 10 11 11 10 9 8 8 7 6 7 7 7 7 7 6 6 7 7 7 6 6 6 6 6 5 5 6 6 6 6 6 5 4 4 4 4 4 5 4 4 3 4 4 4 3 4 3
3 4 2 4 3 4 1 2 4 1 3 0 3 5 2 4 2 1 5 9 8 9 7 7 8 8 7 8 8 8 7 7 7 10 11 11 10 10 10 10 11 12 10 10 10 9 11 9 10 10 12 13 12 10 9 8 8 7 7 7 8 8 8 7 7 6 6 6 6 7 6 6 6 6 6 5 6 6 6 6 5 5 5 5 4 4 4 5 4 4 3 4 5 5 5 5 4
6 2 3 3 7 2 3 3 2 1 4 5 2 2 4 2 2 1 2 5 6 7 7 7 8 8 8 7 8 9 9 9 11 11 12 11 10 12 11 11 11 11 10 10 10 12 13 11 9 10 10 11 11 10 9 9 8 8 7 7 7 8 8 7 7 7 7 6 6 7 6 7 7 7 6 5 6 6 6 6 5 5 5 5 5 5 6 4 4 4 5 4 5 5 5 5 6
4 2 3 3 1 7 7 5 5 6 2 6 3 4 7 8 3 3 4 1 6 7 8 8 8 7 7 7 7 8 9 10 12 10 12 12 11 11 11 10 9 9 9 11 10 10 10 9 8 8 9 9 10 9 9 8 7 6 6 7 7 8 7 7 7 7 7 7 7 7 7 7 8 7 7 6 6 6 5 5 6 6 6 6 5 5 4 4 4 4 5 5 3 5 6 5 6
6 7 6 4 6 4 5 5 2 12 6 4 7 8 10 13 5 4 4 4 5 7 5 4 5 7 8 8 9 8 9 12 9 9 10 10 10 11 10 10 10 10 11 11 11 10 10 9 8 8 9 9 8 8 8 8 7 7 7 6 7 8 7 7 7 8 7 7 7 7 7 7 7 7 7 6 7 6 6 6 6 5 6 6 6 5 5 5 7 6 6 6 5 4 2 3 2
4 2 5 7 7 3 2 2 1 3 3 7 9 10 8 9 6 7 6 3 3 5 5 6 5 7 8 9 10 11 11 13 8 10 11 12 11 10 10 10 10 10 11 12 12 11 12 12 11 12 10 9 9 9 9 10 10 7 5 8 9 8 8 7 8 7 7 7 7 7 7 7 6 6 6 6 7 6 6 5 5 5 6 6 7 7 7 6 5 5 4 2 4 4 2 2 2
7 5 4 7 5 4 2 2 1 0 4 4 4 4 7 9 6 8 4 4 9 11 9 8 9 7 8 11 11 11 12 4 4 6 9 8 8 9 8 9 8 11 10 11 13 13 12 12 13 13 9 10 11 11 11 10 10 10 10 9 6 7 7 8 8 7 7 7 7 7 7 6 6 6 7 7 7 7 6 5 5 5 6 6 6 5 5 5 4 3 2 3 1 4 3 3 3
7 6 5 6 6 2 1 2 1 1 2 4 0 6 8 10 9 5 4 9 9 11 12 13 13 11 8 8 9 9 6 8 7 11 10 10 11 11 10 10 11 14 13 14 13 12 12 12 12 11 11 11 11 11 10 11 9 8 8 5 7 4 3 7 7 6 6 7 7 7 7 6 6 6 6 6 6 6 6 5 6 6 7 6 5 5 5 5 5 5 5 6 3 0 1 2 5
6 5 0 5 5 5 1 2 1 0 1 2 1 3 8 7 5 7 8 9 7 9 11 10 9 13 12 12 11 11 11 9 10 12 12 11 11 12 10 11 12 10 10 10 11 13 12 12 12 12 12 11 11 11 11 9 8 6 5 5 5 6 6 4 5 5 6 7 7 6 6 6 5 5 6 6 6 5 6 6 5 5 6 6 6 6 5 5 4 4 4 5 4 3 3 5 3
5 3 1 2 3 4 4 5 1 1 1 2 1 3 6 5 5 5 7 9 6 5 7 8 8 9 10 8 6 9 13 12 11 9 8 9 10 13 15 14 11 13 12 13 13 13 11 14 14 14 13 13 11 11 11 8 7 6 5 3 3 2 3 6 6 5 6 6 6 6 7 5 5 5 5 5 6 6 5 5 6 7 7 7 6 6 6 6 6 6 6 5 6 6 6 3 2
5 4 8 5 4 3 2 5 6 1 3 3 4 1 5 5 9 13 10 5 6 5 8 11 13 11 7 8 12 10 8 9 13 13 14 14 15 12 11 12 13 13 13 13 13 14 13 13 13 12 10 10 11 11 11 9 10 10 9 8 7 7 7 6 10 11 8 8 8 4 5 6 6 5 5 5 5 5 6 6 6 6 4 4 4 5 5 5 5 6 7 7 6 5 6 3 3
8 5 4 5 6 4 6 5 3 2 3 2 1 8 5 5 3 6 6 4 10 5 8 13 13 12 10 12 11 11 12 11 8 7 8 9 10 11 12 12 14 14 14 12 12 12 12 12 12 12 12 11 11 10 11 10 10 10 12 12 11 12 12 9 5 5 7 5 6 6 6 5 6 7 5 5 5 5 5 5 5 6 6 6 6 5 5 6 6 7 5 5 6 5 4 6 7
6 1 3 5 7 7 7 7 4 1 1 1 2 3 3 5 8 5 5 5 10 8 8 8 9 10 11 12 11 9 11 11 11 12 12 13 14 16 17 16 14 16 14 12 12 10 12 12 12 12 10 10 10 10 11 12 12 11 11 10 10 10 11 10 7 6 6 7 7 7 6 6 6 6 6 5 5 5 5 5 5 5 5 4 5 6 7 5 4 3 5 6 5 5 6 6 7
3 1 5 6 9 8 7 5 4 1 2 3 2 1 0 5 7 6 1 4 3 7 9 10 11 12 12 11 11 11 12 11 11 11 12 12 13 14 12 13 13 9 8 11 12 12 11 10 11 10 10 10 10 12 12 12 12 12 12 10 9 7 6 6 5 6 6 6 7 5 7 6 6 6 6 6 6 5 5 5 5 6 5 4 4 5 4 5 6 5 5 5 6 7 7 7 4
3 2 3 3 3 3 6 4 4 0 2 5 4 2 3 7 6 3 1 1 4 6 9 10 11 12 13 12 12 13 10 7 6 7 6 8 9 10 9 6 6 8 7 5 5 5 6 7 10 11 11 10 11 12 12 11 10 11 11 10 11 8 6 6 6 7 6 5 7 7 7 6 6 6 6 6 6 5 5 5 4 4 5 5 5 4 4 3 3 3 4 4 4 4 4 5 6
3 4 5 4 5 3 2 4 3 2 3 6 7 6 4 4 4 7 5 6 8 7 4 5 6 6 8 10 11 9 8 7 6 6 6 5 4 5 5 8 8 5 5 6 7 7 7 8 10 12 12 9 10 12 12 12 10 11 11 11 12 11 9 8 7 7 6 5 7 6 7 6 6 6 6 6 6 5 5 5 4 3 4 3 4 4 4 5 4 4 3 3 3 4 4 4 3
10 2 4 6 2 5 3 2 3 2 5 5 2 3 3 6 4 5 8 5 3 8 7 9 8 9 10 9 9 7 6 6 5 5 4 2 3 2 3 6 6 6 5 7 7 6 8 8 9 11 8 9 9 10 11 11 10 10 9 10 11 11 11 10 11 10 9 9 7 7 5 5 5 6 6 6 5 5 5 4 4 4 3 3 4 3 4 5 5 4 4 3 3 3 2 2 2
4 6 7 8 2 2 1 0 3 4 5 1 3 0 1 8 7 6 6 8 6 5 7 7 7 7 5 4 4 5 5 5 5 5 3 2 5 5 5 5 5 6 8 8 9 8 8 8 10 11 10 8 10 10 11 10 10 10 10 11 10 9 10 9 9 8 7 8 7 7 7 7 5 6 5 4 4 4 5 5 6 5 4 5 4 4 4 5 5 6 6 4 4 3 4 4 3
5 9 7 6 2 2 2 3 1 3 4 3 1 2 3 3 7 11 14 17 15 7 5 4 5 6 6 5 4 4 4 4 5 5 5 5 6 6 6 6 7 7 7 9 8 8 8 8 9 11 10 9 8 9 11 10 10 9 9 9 9 9 9 9 8 9 8 7 7 8 7 7 6 6 5 6 7 6 5 7 7 7 6 5 5 5 5 4 4 4 4 4 4 5 5 4 4
7 3 9 7 6 4 3 3 4 7 7 1 3 2 6 4 5 3 12 12 11 5 5 5 6 6 6 5 4 4 4 5 5 5 7 8 9 8 7 6 6 6 6 7 7 7 7 8 9 10 10 9 10 10 8 10 9 9 8 8 8 7 8 8 7 7 8 8 6 7 6 5 6 6 7 7 6 7 7 6 5 5 4 5 5 4 4 4 4 4 4 5 4 4 4 5 4
4 4 5 5 7 4 5 5 5 2 1 0 1 5 4 6 3 7 4 6 5 4 3 1 5 1 1 3 5 6 6 5 5 6 6 7 7 6 6 6 7 7 7 6 7 7 8 9 9 10 11 10 9 9 9 10 10 8 7 9 9 8 7 6 5 5 6 7 7 7 7 6 7 7 6 5 5 6 6 5 5 4 4 5 5 5 5 4 4 4 4 4 5 3 4 4 5
4 6 6 4 2 8 5 2 0 3 3 6 3 4 6 8 9 11 6 3 7 4 5 3 5 4 2 4 5 5 6 5 5 7 7 7 6 6 8 7 7 7 7 9 9 9 10 9 9 9 8 8 9 10 10 10 9 8 7 7 7 7 9 9 10 8 7 6 7 7 7 6 5 6 6 5 6 5 6 6 5 5 4 4 4 4 5 5 4 4 4 4 5 4 4 5 4
7 3 8 2 2 4 4 4 1 1 4 6 3 7 4 0 6 3 4 6 6 5 7 7 5 4 6 8 8 8 7 7 6 7 7 7 7 8 7 6 7 8 8 7 9 7 8 8 9 10 9 11 9 9 9 9 9 8 7 8 8 8 8 7 7 8 7 7 7 7 6 7 7 6 6 5 6 6 4 5 5 4 4 5 5 5 4 3 4 4 4 4 4 4 3 1 2
3 6 5 8 3 4 2 3 1 2 2 3 2 4 4 6 6 4 2 3 6 7 7 5 8 6 9 8 8 6 6 5 6 7 7 6 6 6 7 7 7 8 8 8 7 6 5 5 6 9 11 11 10 9 8 7 8 8 7 8 8 8 7 7 6 7 7 8 8 8 7 7 6 6 7 7 6 6 5 5 5 4 5 5 5 6 6 5 5 5 3 3 2 3 4 3 2
1 2 1 1 3 3 5 6 3 5 5 1 6 2 6 6 6 5 6 6 7 7 5 8 10 8 7 7 7 7 8 8 7 7 6 5 5 5 7 8 8 9 8 8 8 7 7 7 7 7 6 6 7 8 8 9 9 9 8 5 5 6 6 7 8 8 8 8 7 7 6 6 7 6 6 6 7 6 6 6 5 6 5 5 6 5 6 6 6 6 5 5 3 4 3 3 1
1 3 4 1 1 2 4 0 5 5 4 4 2 4 5 7 8 8 11 11 11 7 7 8 8 9 8 6 6 7 8 7 6 6 5 4 5 5 5 5 5 5 5 6 7 8 7 6 7 8 10 10 10 9 9 10 10 10 8 8 7 7 7 7 7 7 8 7 6 6 6 6 6 6 6 6 6 5 5 6 5 6 6 5 6 5 5 5 5 4 3 4 3 2 1 0 1
9 12 13 13 9 5 8 9 1 2 3 4 3 9 6 9 4 10 11 10 6 6 6 7 7 7 5 5 6 6 5 5 6 5 4 5 5 4 3 2 3 4 5 6 6 6 6 7 8 9 9 9 10 10 10 9 8 8 8 7 7 5 7 6 7 6 7 6 6 6 7 6 6 6 7 6 6 6 6 6 6 5 5 5 4 4 3 1 2 2 3 2 2 2 2 1 2
Wind_Direction
334 334 322 283 219 320 51 11 48 308 63 259 264 20 224 32 144 78 89 37 59 319 181 113 57 35 89 143 121 102 19 107 245 142 213 161 113 114 124 128 130 128 129 134 129 120 119 122 119 117 115 112 107 102 100 100 100 96 98 106 104 101 100 95 93 94 91 84 80 83 85 78 79 84 85 89 89 83 83 82 79 77 77 77 77 76 77 77 78 78 78 80 81 81 78 70 64
313 337 324 325 282 66 315 119 104 355 34 11 291 120 171 139 68 131 133 114 168 151 145 79 58 71 101 119 132 102 29 9 305 132 89 95 110 116 131 134 136 132 133 133 128 124 122 125 124 122 118 113 109 108 105 96 90 93 98 104 107 106 103 98 95 86 85 97 97 88 83 83 84 81 77 77 82 85 85 83 81 79 78 78 78 78 78 78 78 79 80 80 82 83 73 61 60
326 355 351 13 35 76 277 47 270 49 63 308 264 228 145 77 112 141 139 116 118 120 85 75 82 93 88 114 38 73 288 354 83 70 98 125 121 147 137 134 129 131 132 134 129 128 128 130 127 124 118 113 111 106 99 94 94 94 98 103 105 100 104 102 96 95 94 87 84 88 86 83 82 78 80 80 83 86 86 84 80 80 80 79 78 78 77 78 79 79 80 81 82 81 65 59 55
323 287 59 44 345 20 56 16 105 145 144 221 303 330 68 133 129 123 129 127 121 97 66 34 62 279 92 72 105 78 106 126 22 130 125 153 148 145 137 131 129 130 131 133 133 132 132 136 128 125 122 116 111 108 104 101 100 96 96 102 103 101 101 101 99 96 90 90 91 89 89 86 82 84 83 82 83 83 81 82 83 79 78 78 79 78 79 79 79 79 81 81 81 76 63 61 56
344 316 133 69 106 353 84 213 179 118 263 209 177 351 129 129 128 115 116 126 101 97 78 113 72 6 83 106 143 86 187 98 115 324 113 123 140 136 132 134 136 136 135 134 133 135 138 136 130 127 124 121 115 107 102 102 100 97 95 102 105 109 107 102 100 97 96 94 93 87 82 85 87 87 86 85 85 87 86 83 82 81 79 78 77 79 78 78 79 80 81 82 82 69 62 58 56
330 13 345 95 157 184 44 17 320 329 225 167 114 161 170 155 124 122 121 90 69 70 132 89 148 112 34 2 17 93 136 137 181 137 127 150 137 134 138 140 139 137 132 130 133 136 141 137 133 129 127 121 115 109 108 106 103 103 99 105 106 102 102 100 100 100 100 99 96 99 91 86 90 87 87 89 90 86 85 85 81 79 78 79 80 80 78 77 77 78 78 79 76 63 56 56 58
330 30 354 22 346 53 166 201 274 218 276 142 157 160 152 172 133 113 112 85 349 66 48 91 109 95 79 213 59 87 254 164 146 159 147 149 132 136 141 140 136 129 128 131 133 137 142 140 135 130 127 125 121 117 115 112 107 108 108 111 110 102 97 100 102 102 101 100 94 94 93 92 91 90 91 92 91 88 84 80 80 80 79 80 79 78 79 79 80 78 76 78 76 61 55 54 54
28 100 280 96 270 51 272 201 254 148 286 92 181 141 157 152 140 117 140 109 190 116 329 100 104 95 16 57 124 297 9 55 123 124 130 134 137 135 141 137 126 127 128 130 133 139 145 141 133 132 131 128 125 121 117 114 112 105 111 112 110 105 103 102 105 109 108 104 107 104 99 94 89 92 89 88 87 87 87 87 86 84 83 81 79 81 81 82 80 78 75 74 72 62 54 52 53
333 79 329 72 315 6 329 259 241 221 266 359 112 144 152 149 144 125 117 141 103 107 155 87 109 90 211 65 58 327 19 106 114 122 132 138 142 143 139 131 128 128 128 131 133 141 144 140 134 135 134 133 129 124 120 119 115 114 110 108 108 108 107 106 109 108 111 110 105 104 97 96 102 100 95 90 86 87 88 89 89 89 88 87 84 83 82 83 81 79 78 77 75 67 57 54 53
357 96 312 162 132 238 306 296 78 239 158 236 142 149 148 151 127 120 129 116 168 139 193 157 109 111 122 96 119 26 136 131 120 115 134 146 148 143 132 122 126 127 127 133 135 141 146 141 135 135 136 136 130 128 124 123 120 117 114 113 111 111 112 112 110 114 116 113 110 102 99 99 99 97 93 91 94 92 88 87 86 87 88 86 87 86 84 84 84 82 82 81 80 72 62 58 55
357 17 153 47 22 257 238 269 267 284 148 138 105 167 160 141 130 125 141 149 159 142 208 120 76 126 115 82 172 258 152 133 131 145 154 157 151 142 122 125 128 131 133 137 138 140 145 141 137 136 137 134 132 130 127 123 122 120 117 115 114 112 112 110 108 111 117 116 103 109 107 101 91 71 72 92 88 87 90 89 88 87 87 87 88 87 86 84 85 84 83 84 81 74 68 62 60
48 152 35 126 214 181 238 210 207 248 296 249 129 182 189 142 124 112 131 123 143 124 151 132 166 133 82 126 216 160 143 147 148 150 161 158 154 144 124 128 130 132 135 137 136 141 143 142 137 139 136 133 131 130 128 125 122 121 120 117 114 113 110 109 108 108 115 104 88 91 105 99 89 81 78 85 89 92 93 92 90 89 89 87 86 88 87 87 86 87 88 88 86 82 71 67 63
132 132 100 99 235 176 232 72 215 175 195 230 167 235 117 129 147 147 146 126 138 121 160 204 137 99 114 121 215 154 147 176 158 156 163 166 156 144 122 128 132 132 132 135 138 142 144 145 140 140 139 133 131 130 127 126 124 123 121 119 114 111 111 108 108 112 88 82 85 81 86 92 87 86 83 81 81 84 88 88 90 89 88 88 88 88 89 89 88 88 88 87 88 84 75 71 66
122 176 123 224 189 225 163 272 134 143 253 241 236 184 74 128 186 151 124 124 159 150 238 194 79 113 86 92 142 180 184 167 156 165 166 168 142 135 122 130 132 134 136 140 145 146 148 148 143 140 138 134 132 127 127 128 126 123 120 115 113 112 112 108 94 84 87 81 74 74 77 82 81 81 82 80 78 76 76 78 84 88 88 89 87 87 89 89 88 89 89 87 85 80 70 67 61
178 202 95 146 277 359 228 137 215 176 233 175 221 145 140 31 89 101 139 131 187 232 141 75 162 95 203 149 212 193 182 165 156 164 173 151 141 126 124 131 134 136 142 144 147 149 152 150 147 145 145 139 137 133 132 129 126 123 121 119 115 110 102 104 101 96 94 91 87 89 86 86 82 79 79 85 86 82 75 68 79 90 94 94 91 90 90 89 88 88 86 85 79 69 60 52 44
157 83 98 128 243 207 274 182 186 120 243 160 224 115 86 14 10 95 276 144 165 344 73 127 23 156 156 171 191 176 158 153 155 161 159 148 125 122 124 134 136 141 146 146 152 158 156 155 156 154 149 147 141 136 133 133 130 127 124 121 118 115 114 112 110 107 109 106 107 104 102 97 91 87 87 81 85 84 80 75 70 86 96 96 96 95 93 95 92 88 85 82 78 62 54 41 26
54 81 259 68 253 199 260 208 151 208 231 184 226 150 149 121 307 63 311 121 112 47 60 352 84 36 123 219 145 143 141 142 148 152 144 134 125 137 123 134 141 141 148 154 156 163 161 159 160 160 159 156 150 143 138 133 133 124 120 122 122 121 120 120 116 115 116 119 118 119 115 111 110 105 91 90 85 92 91 82 77 73 84 95 101 97 100 98 92 89 89 89 91 83 63 45 27
68 164 128 255 203 180 226 221 194 196 140 195 193 196 132 133 212 161 75 56 92 79 82 26 43 42 61 103 120 130 140 144 157 156 159 147 147 151 143 150 150 164 154 162 166 162 160 164 164 167 163 163 157 150 148 142 139 126 128 129 125 124 124 124 126 132 133 140 140 135 133 133 127 117 110 104 102 101 98 98 91 89 83 77 75 97 105 97 94 94 95 105 109 106 66 50 33
131 163 123 217 197 234 198 258 206 131 203 171 183 165 171 176 141 196 106 152 125 91 55 79 79 59 75 99 119 132 142 148 160 170 163 161 162 165 161 155 159 162 170 163 174 162 163 164 166 171 169 167 160 153 152 151 147 142 141 137 136 137 142 140 142 146 150 153 169 165 156 143 139 124 127 121 112 110 112 109 105 101 97 93 91 86 86 90 102 103 97 95 101 52 19 355 349
233 121 208 239 215 243 347 345 226 193 141 141 153 206 164 195 150 184 142 165 144 154 138 87 121 133 131 128 129 138 144 154 166 172 170 170 166 166 167 162 167 172 178 170 173 162 161 165 171 173 172 166 159 154 152 157 157 152 152 150 148 152 156 155 156 161 168 174 176 184 133 139 132 122 122 119 114 109 106 104 109 109 110 110 109 99 91 101 100 74 57 49 27 6 3 333 310
262 123 193 224 238 305 283 339 327 220 151 158 167 151 151 198 177 146 154 118 212 195 183 159 169 156 152 152 148 146 149 159 169 176 174 173 175 176 180 173 170 170 176 169 168 170 165 165 172 173 169 164 157 153 156 164 162 156 156 156 159 161 168 167 168 172 182 183 176 183 151 146 135 136 138 129 128 130 131 135 133 138 141 134 126 123 133 117 98 90 27 28 331 320 318 292 282
104 210 204 201 65 152 270 327 1 289 152 140 161 146 201 128 108 170 154 173 202 196 201 180 159 156 154 158 162 154 159 166 173 179 183 179 177 180 180 169 163 169 168 174 186 177 169 168 170 172 164 161 159 159 166 166 164 163 165 166 164 172 173 180 175 183 193 180 179 186 144 150 140 142 143 141 145 148 149 159 162 161 162 165 158 147 164 154 146 129 155 223 256 267 268 268 254
234 284 223 222 227 221 251 358 334 301 150 152 159 195 111 154 187 200 168 180 231 213 183 174 157 164 165 157 155 164 167 173 179 184 182 185 184 185 187 178 174 180 180 186 182 183 177 170 168 167 166 158 161 164 163 163 175 171 167 168 168 179 178 184 183 183 196 173 173 154 144 149 146 151 153 154 158 163 170 174 171 180 181 182 185 154 179 190 170 181 184 220 232 244 250 246 180
206 237 227 218 275 203 224 92 328 315 164 174 161 133 138 150 158 197 170 242 202 219 220 167 164 157 146 154 169 170 176 178 185 186 187 188 185 185 185 182 185 172 178 183 184 182 182 179 170 163 168 161 163 166 166 170 177 169 171 169 176 178 172 183 181 176 177 184 157 159 166 148 155 155 173 167 175 173 189 190 176 180 195 208 188 165 173 191 191 202 209 229 241 254 231 215 89
209 238 248 205 77 281 308 94 353 346 61 75 115 141 175 158 174 129 217 182 196 165 115 143 143 147 159 162 173 175 177 181 183 184 186 195 199 194 194 181 182 166 183 183 182 180 185 179 173 166 168 167 163 166 170 176 172 168 168 174 178 175 177 176 177 168 164 189 172 158 178 155 158 167 174 193 164 186 200 195 176 188 193 205 168 181 173 188 197 210 219 222 206 207 138 301 324
210 234 158 131 135 240 273 84 75 346 348 111 105 123 24 213 3 182 190 203 203 150 96 126 140 151 163 173 175 174 179 183 183 183 187 185 192 201 208 185 179 176 183 180 176 184 182 175 177 174 167 171 167 162 169 174 170 163 172 178 168 169 178 174 169 171 167 175 190 183 172 176 168 175 183 195 176 190 190 189 177 187 190 195 170 172 195 176 204 215 233 215 194 193 218 258 234
233 222 177 154 210 147 308 207 165 306 64 110 140 132 113 321 126 243 207 191 173 120 118 134 144 161 169 173 179 182 178 184 186 187 179 183 192 202 206 189 182 182 167 182 184 180 183 171 179 175 170 170 164 167 166 174 167 163 173 172 161 171 175 171 173 187 168 168 185 193 186 181 171 178 186 185 188 186 191 178 176 169 177 181 171 175 183 181 196 208 204 200 194 207 222 221 201
227 174 105 83 158 173 214 96 168 90 322 106 107 110 173 333 47 223 202 182 168 131 142 149 155 166 172 175 178 184 188 190 185 176 187 188 194 198 206 187 188 180 178 183 185 177 180 181 177 176 171 170 168 172 168 172 175 166 169 162 170 172 169 174 177 182 190 167 176 181 200 201 182 169 181 196 182 182 184 186 185 163 193 190 180 169 179 191 191 211 205 196 199 191 214 208 208
235 154 202 227 98 149 217 152 219 112 219 133 140 76 303 190 222 221 203 166 173 143 159 162 165 171 174 179 180 181 192 185 180 186 196 196 190 193 203 194 181 183 190 181 180 177 182 184 176 180 172 170 177 179 176 174 176 168 169 167 169 170 171 171 179 182 193 179 174 182 188 202 203 180 177 189 192 183 181 181 187 194 199 193 187 178 174 191 184 183 214 185 130 131 184 265 245
225 237 157 125 330 291 235 217 131 124 249 111 145 198 253 232 230 228 191 164 159 144 163 173 172 171 178 178 183 190 192 178 186 196 195 195 193 191 194 200 183 177 179 181 174 183 180 185 177 176 176 175 179 179 176 177 182 172 173 169 169 171 174 174 184 185 181 199 184 182 186 196 209 203 167 182 188 187 186 184 190 203 202 196 182 173 179 188 193 171 193 160 181 155 192 236 194
196 218 131 185 155 251 214 168 188 141 191 131 97 190 272 263 250 219 203 167 159 170 177 179 178 179 174 181 183 190 196 188 192 197 196 195 195 192 192 193 190 175 169 177 181 185 173 179 179 177 176 176 175 179 181 180 180 172 172 171 176 174 178 181 184 188 186 187 195 193 185 192 205 208 188 168 186 189 184 191 194 203 188 188 183 192 177 191 182 193 164 180 217 220 217 236 202
271 169 228 259 166 274 274 164 174 165 270 189 115 259 238 262 274 233 180 178 166 175 183 188 186 184 181 178 184 189 195 197 202 198 196 195 192 193 190 191 190 178 177 181 183 180 184 176 181 176 176 175 179 179 182 178 178 179 170 173 177 180 181 189 189 189 192 187 189 196 197 197 197 205 204 175 178 187 186 192 198 185 186 179 189 187 172 184 190 191 203 172 193 239 234 254 244
266 196 240 205 156 229 40 254 212 270 124 340 173 207 316 297 280 138 181 166 179 177 189 195 197 192 185 186 186 188 189 205 207 201 199 194 195 192 193 190 190 188 179 176 179 182 187 183 178 174 179 179 180 177 175 180 180 181 178 170 179 180 185 192 194 191 187 192 195 195 194 194 198 202 203 191 182 185 188 188 190 185 180 180 180 184 187 188 184 202 220 211 183 206 208 233 243
233 190 200 203 174 192 209 313 229 197 146 193 250 180 231 237 292 264 187 176 174 183 195 200 199 196 195 188 189 188 194 195 201 201 201 193 193 192 194 192 191 190 186 180 181 181 187 187 183 179 179 180 180 181 178 179 185 181 182 179 173 184 191 190 193 191 196 194 192 199 196 194 200 202 193 186 191 189 187 186 184 184 178 177 179 181 197 189 195 189 220 223 202 192 206 210 231
197 196 213 280 163 177 180 155 233 143 230 179 177 227 262 265 251 238 232 198 182 199 197 199 195 198 199 195 195 194 196 202 210 200 195 194 190 193 190 190 189 190 190 188 182 186 183 186 184 184 175 176 180 181 180 174 170 176 184 187 185 188 191 192 186 193 197 194 197 195 194 197 201 202 194 182 185 187 189 188 182 188 176 176 176 184 194 199 203 202 208 229 227 213 202 206 215
187 178 196 180 173 225 203 228 256 167 174 192 177 204 225 246 242 250 252 229 196 219 212 205 212 203 198 199 202 200 203 213 210 201 199 196 191 186 188 187 188 188 189 188 184 183 184 182 185 184 186 176 172 178 176 180 174 171 178 196 200 196 190 189 193 193 187 195 198 195 193 195 200 199 195 191 190 187 188 190 187 170 178 167 175 181 201 198 207 212 222 216 229 244 242 203 168
299 203 183 206 183 221 295 253 254 155 120 208 199 215 224 242 233 239 222 211 245 261 250 231 214 203 202 202 202 207 207 214 202 197 199 198 194 190 188 183 186 188 188 186 184 185 184 183 178 188 188 175 170 175 182 183 187 189 187 192 200 194 189 185 192 194 191 192 194 200 199 196 198 197 196 189 196 192 192 181 166 172 171 174 178 197 198 203 210 210 218 207 228 229 246 38 15
263 270 225 233 167 190 257 223 237 296 152 242 203 227 246 247 248 241 215 157 220 217 219 228 227 213 205 199 204 206 212 235 186 208 214 201 194 192 184 186 180 183 196 185 188 191 187 183 184 189 181 183 184 184 184 189 192 195 193 194 179 182 183 187 194 195 192 191 196 199 200 195 190 191 195 195 193 185 181 167 159 165 168 184 192 192 188 196 196 203 184 229 237 213 230 165 211
245 260 234 229 235 180 279 21 126 245 99 269 314 218 250 249 240 252 186 198 220 209 201 208 208 217 215 213 210 208 209 212 199 208 202 198 194 188 183 190 193 192 188 188 190 188 187 185 190 187 187 188 191 186 182 194 193 191 187 183 174 168 199 189 181 182 180 188 196 194 189 187 179 182 185 186 185 179 172 165 172 168 178 174 174 187 189 188 182 190 189 202 233 314 226 193 197
228 259 85 224 202 134 243 290 73 5 128 212 98 191 267 282 269 244 230 206 224 210 210 221 207 209 212 210 200 199 209 202 202 203 204 199 192 189 187 190 193 190 190 194 190 189 188 189 190 189 190 191 191 191 189 191 186 179 176 159 178 165 173 180 184 180 189 190 202 195 197 190 188 187 184 186 191 184 173 181 176 175 182 177 180 187 191 201 183 191 185 201 167 239 223 238 196
262 179 273 285 164 219 148 201 110 343 16 96 65 359 303 249 261 271 246 226 231 219 214 231 237 229 221 217 214 206 200 198 203 206 205 191 192 195 192 192 185 190 192 193 190 190 190 190 192 190 189 191 191 188 184 165 152 158 153 116 128 103 73 148 168 201 198 192 192 199 200 187 188 190 188 185 186 190 184 185 186 192 188 191 188 191 191 201 200 195 193 191 194 214 247 227 227
249 241 190 212 201 147 56 112 112 45 297 250 142 358 288 261 234 228 230 223 215 220 200 218 222 226 223 221 221 220 225 207 198 199 197 194 193 195 198 193 190 195 196 196 193 193 190 192 190 189 189 190 190 186 178 166 171 170 165 165 173 186 191 174 192 193 185 190 194 170 180 185 182 177 176 184 189 178 180 185 191 189 192 179 182 199 206 198 199 196 203 204 211 215 224 247 249
229 255 206 183 155 136 135 149 95 133 175 292 122 176 261 327 277 243 242 233 250 235 208 218 216 222 217 221 219 215 215 224 233 223 201 189 200 191 198 197 197 197 202 193 195 195 195 192 190 186 187 189 186 180 176 173 176 179 183 187 187 190 193 207 187 169 174 174 154 175 180 184 184 184 188 183 183 185 183 182 185 191 194 192 188 191 203 208 208 211 194 192 204 193 176 233 240
233 241 138 134 117 134 178 158 165 184 226 5 50 126 188 288 286 249 217 209 235 241 239 237 233 230 226 226 222 218 219 218 209 211 206 201 192 191 195 200 197 202 196 190 194 192 192 191 187 188 186 186 186 177 178 182 183 184 181 185 188 191 199 198 178 174 166 159 154 168 176 183 181 181 181 183 186 183 186 187 185 193 199 205 194 200 204 204 185 174 179 194 194 182 195 217 235
213 247 161 161 162 171 154 144 156 155 121 271 308 275 266 259 268 299 231 209 258 242 230 232 226 226 228 229 227 223 220 215 207 207 206 202 201 204 202 198 207 202 189 190 192 192 192 187 184 184 185 183 186 181 180 185 183 183 182 177 181 200 178 173 165 157 163 168 168 171 164 174 178 182 180 181 183 182 183 193 190 185 186 189 181 192 197 187 194 190 188 190 199 207 205 215 215
253 200 95 87 84 85 138 123 117 31 99 252 238 187 185 281 272 297 348 183 242 240 233 230 222 219 220 225 227 224 222 218 217 217 216 215 213 211 209 204 190 201 195 188 190 180 179 174 181 182 188 186 185 185 182 183 179 172 176 180 179 178 170 167 159 166 170 171 178 184 181 167 169 167 176 177 173 175 177 184 189 194 194 190 184 190 181 182 187 195 202 206 207 216 203 201 215
118 93 66 32 38 45 33 74 97 73 273 251 230 221 158 284 265 209 168 218 197 227 282 266 250 245 244 237 230 226 226 223 223 221 217 220 233 208 179 189 197 187 187 182 184 183 179 181 181 186 190 183 182 184 182 183 178 177 181 182 182 175 178 164 162 173 174 173 180 188 189 178 161 160 157 165 162 155 164 169 171 185 188 175 169 166 186 193 197 192 187 178 187 203 207 208 225
138 128 125 86 353 15 27 346 40 156 266 260 281 228 163 195 290 278 245 282 236 196 209 229 241 237 235 235 236 229 210 202 188 172 175 147 125 131 156 177 177 182 171 185 187 183 181 182 180 185 185 182 180 181 181 180 178 181 180 179 184 182 174 177 180 182 186 183 179 177 170 160 175 164 163 163 177 183 169 170 173 173 178 163 178 170 171 173 172 165 161 167 180 188 189 189 211
111 109 124 141 204 49 307 9 234 225 204 274 334 248 351 246 227 250 280 269 287 227 210 222 231 248 250 232 198 178 169 158 167 185 179 188 179 173 177 182 168 174 182 183 186 183 183 180 180 180 187 180 180 177 181 175 175 179 178 182 184 176 181 182 183 184 183 179 174 168 171 175 168 178 188 184 211 193 187 191 185 182 187 184 175 171 179 168 168 168 168 170 178 185 193 199 210
125 153 150 137 115 107 187 261 225 311 289 267 251 295 259 242 285 246 250 260 243 227 231 236 207 200 205 207 204 188 185 174 189 194 199 204 207 208 197 187 187 186 186 185 183 182 182 181 182 181 184 180 174 176 177 171 177 176 177 179 179 174 183 182 184 180 181 174 170 175 176 177 183 191 189 200 203 193 185 191 185 189 191 186 176 177 170 169 159 163 162 171 194 204 188 179 193
199 142 155 172 149 145 187 183 191 212 209 270 277 93 232 126 244 244 232 249 279 258 230 210 213 213 203 195 189 201 203 217 200 196 203 207 212 205 200 197 196 193 187 185 183 184 176 181 180 181 175 182 175 175 168 170 171 175 176 175 174 177 180 184 183 177 170 168 173 169 174 173 181 196 193 205 189 184 189 183 185 185 182 178 172 165 165 159 162 149 165 183 192 193 193 192 211
200 169 94 129 208 142 157 197 161 168 171 337 277 209 188 182 253 282 235 279 288 285 236 235 217 240 168 176 195 202 212 216 216 213 221 226 216 211 209 204 201 193 190 187 186 182 182 186 183 183 179 175 171 166 174 175 177 173 171 173 178 176 175 170 167 172 173 168 171 173 181 182 190 192 199 178 178 164 156 149 140 143 156 159 162 159 158 161 157 155 165 167 200 185 184 192 218
213 116 191 207 144 100 101 56 160 110 55 249 183 312 292 296 317 280 265 218 261 309 284 266 255 259 291 235 231 231 228 225 224 219 218 218 216 216 206 199 196 195 192 190 189 188 187 181 179 177 171 166 170 176 177 180 174 167 179 176 169 173 177 180 182 180 174 175 173 181 180 183 166 154 152 147 134 127 133 135 125 115 106 121 134 152 158 159 158 160 167 174 197 195 178 201 192
105 162 207 164 108 119 134 199 342 111 171 258 124 205 287 52 272 318 304 261 263 264 253 238 239 236 233 233 230 228 227 228 226 225 223 215 206 204 205 199 191 191 192 195 197 193 188 182 177 169 167 173 177 175 177 178 177 178 175 182 183 182 180 178 171 173 166 159 168 166 158 152 157 150 135 133 122 120 118 119 115 103 98 89 101 98 110 127 135 147 171 186 206 176 176 147 171
167 190 189 140 228 229 268 115 189 199 236 262 267 229 248 179 231 333 317 219 251 244 248 269 265 233 229 237 242 250 256 256 237 225 222 219 204 200 194 194 193 188 188 189 188 184 182 182 179 173 176 179 175 176 176 178 181 187 184 187 183 177 172 169 166 158 158 154 156 155 155 153 134 133 126 125 118 117 116 107 109 104 99 103 90 92 98 97 108 104 110 120 122 130 126 120 86
359 53 62 57 123 177 146 198 173 125 243 200 293 121 233 207 216 208 260 239 240 241 223 233 239 241 233 230 228 225 227 222 220 216 215 206 202 195 189 185 185 187 185 185 181 178 183 178 168 171 164 165 168 178 176 178 185 188 186 175 177 173 169 165 164 159 159 159 159 151 145 143 150 138 132 126 125 131 128 120 114 116 112 109 100 98 98 100 94 110 128 116 133 116 111 115 115
108 126 199 295 27 244 113 108 146 172 181 197 207 283 275 252 212 197 222 233 234 218 213 225 236 244 236 229 214 217 218 215 215 215 208 200 201 207 206 191 181 176 175 173 177 180 177 168 173 171 171 175 182 184 179 185 180 186 175 177 171 164 163 155 153 159 154 157 155 150 152 151 133 138 132 125 133 137 130 128 125 126 126 121 116 106 108 105 108 119 115 125 116 92 71 299 294
180 171 186 181 137 123 169 237 30 130 156 228 178 253 264 268 210 201 219 233 227 224 199 209 233 236 242 234 224 213 212 220 210 202 188 187 192 196 186 156 147 150 168 174 177 169 170 177 179 176 176 183 181 183 185 178 177 175 175 168 165 160 151 149 149 156 154 157 158 158 151 139 139 147 133 136 136 137 134 132 126 124 114 112 106 102 91 95 99 97 103 120 117 128 132 109 94